FLOCK 2K-28 (42880 NORAD) Tracking and Keplerian Element Data

This shows tracking and keplerian element data for the satellite.

Feedback or suggestion? Click here.




ElementValue
Catalog42880
NameFLOCK 2K-28
Epoch Orbit15549
Epoch Day115.06695774
Epoch Year2020
RAAN342.5982
Inclination96.8998
Eccentricity0.0011899
Argument of Perigee164.8064
Mean Anonmoly195.3542
Mean Motion15.37953702
Decay Rate4.472E-05
L11 42880U 17042BH 20115.06695774 .00004472 00000-0 12158-3 0 9996
L22 42880 96.8998 342.5982 0011899 164.8064 195.3542 15.37953702155498



Live tracking and technical data element details for FLOCK 2K-28 (NORAD 42880). FLOCK 2K-28 can be tracked NOW for your location showing map with azimuth and elevation plus other details from your city location.







IsCatalogInMostPopularTable: catalog: 42880, numindb: 669
Update: records affected: 1



GetName: 42880 FLOCK 2K-28

Hit Count: updated at: Sat, 14 Mar 2026 02:50:20 GMT